TimeAKDT,TemperatureF,Dew PointF,Humidity,Sea Level PressureIn,VisibilityMPH,Wind Direction,Wind SpeedMPH,Gust SpeedMPH,PrecipitationIn,Events,Conditions,WindDirDegrees,DateUTC
12:53 AM,46.0,-9999,N/A,29.46,4.0,SSE,23.0,42.6,0.13,Rain,Light Rain,160,2011-10-25 08:53:00
1:53 AM,45.0,-9999,N/A,29.44,4.0,South,19.6,36.8,0.12,Rain,Rain,170,2011-10-25 09:53:00
2:38 AM,44.6,-9999,N/A,29.40,6.0,South,16.1,31.1,0.05,Rain,Light Rain,170,2011-10-25 10:38:00
2:53 AM,46.0,-9999,N/A,29.39,6.0,South,20.7,35.7,0.06,Rain,Light Rain,170,2011-10-25 10:53:00
3:09 AM,44.6,-9999,N/A,29.38,4.0,SSE,20.7,36.8,0.03,Rain,Light Rain,160,2011-10-25 11:09:00
3:29 AM,44.6,-9999,N/A,29.37,4.0,South,17.3,39.1,0.05,Rain,Light Rain,180,2011-10-25 11:29:00
3:53 AM,46.0,-9999,N/A,29.34,6.0,South,15.0,36.8,0.08,Rain,Light Rain,180,2011-10-25 11:53:00
4:34 AM,46.4,-9999,N/A,29.32,5.0,South,17.3,38.0,0.05,Rain,Light Rain,170,2011-10-25 12:34:00
4:53 AM,45.0,-9999,N/A,29.31,5.0,SSE,15.0,35.7,0.07,Rain,Light Rain,150,2011-10-25 12:53:00
5:53 AM,44.1,42.1,93,29.25,4.0,South,10.4,16.1,0.18,Rain,Rain,190,2011-10-25 13:53:00
6:25 AM,42.8,42.8,100,29.21,2.5,Calm,Calm,-,0.13,Rain,Heavy Rain,0,2011-10-25 14:25:00
6:36 AM,42.8,41.0,93,29.20,3.0,SW,3.5,-,0.17,Rain,Rain,230,2011-10-25 14:36:00
6:53 AM,41.0,41.0,100,29.19,3.0,Calm,Calm,-,0.22,Rain,Rain,0,2011-10-25 14:53:00
7:53 AM,39.0,36.0,89,29.10,4.0,West,6.9,-,0.21,Rain,Rain,260,2011-10-25 15:53:00
8:44 AM,37.4,35.6,93,29.03,2.0,West,9.2,-,0.21,Rain,Heavy Rain,270,2011-10-25 16:44:00
8:53 AM,37.9,35.1,89,29.03,2.0,West,6.9,-,0.26,Rain,Heavy Rain,270,2011-10-25 16:53:00
9:12 AM,37.4,35.6,93,29.00,3.0,North,4.6,-,0.10,Rain,Heavy Rain,360,2011-10-25 17:12:00
9:53 AM,39.0,36.0,89,28.92,4.0,Variable,6.9,18.4,0.25,Rain,Rain,0,2011-10-25 17:53:00
10:53 AM,39.9,37.0,89,28.89,3.0,WNW,6.9,-,0.17,Rain,Rain,300,2011-10-25 18:53:00
11:53 AM,39.0,37.0,93,28.88,3.0,NNW,3.5,-,0.20,Rain,Rain,340,2011-10-25 19:53:00
12:29 PM,39.2,35.6,87,28.84,7.0,WNW,4.6,-,0.02,Rain,Light Rain,300,2011-10-25 20:29:00
12:43 PM,39.2,37.4,93,28.85,2.5,Calm,Calm,-,0.04,Rain,Rain,0,2011-10-25 20:43:00
12:53 PM,39.0,37.0,93,28.84,2.0,Calm,Calm,-,0.08,Rain,Rain,0,2011-10-25 20:53:00
1:12 PM,39.2,37.4,93,28.83,3.0,North,3.5,-,0.04,Rain,Light Rain,10,2011-10-25 21:12:00
1:50 PM,39.2,37.4,93,28.82,2.5,NNW,4.6,-,0.11,Rain,Light Rain,340,2011-10-25 21:50:00
1:53 PM,39.9,37.0,89,28.82,3.0,Variable,4.6,-,0.12,Rain,Light Rain,0,2011-10-25 21:53:00
2:21 PM,39.2,35.6,87,28.82,2.0,West,4.6,-,0.07,Rain,Rain,280,2011-10-25 22:21:00
2:34 PM,39.2,35.6,87,28.81,5.0,North,4.6,-,0.09,Rain,Light Rain,360,2011-10-25 22:34:00
2:53 PM,39.0,37.0,93,28.81,5.0,North,6.9,-,0.11,Rain,Light Rain,10,2011-10-25 22:53:00
3:53 PM,39.9,36.0,86,28.80,5.0,NW,5.8,-,0.09,Rain,Rain,320,2011-10-25 23:53:00
4:53 PM,39.9,36.0,86,28.79,6.0,NNW,5.8,-,0.17,Rain,Rain,340,2011-10-26 00:53:00
5:53 PM,39.9,37.0,89,28.77,10.0,North,5.8,-,0.07,Rain,Light Rain,350,2011-10-26 01:53:00
6:22 PM,41.0,37.4,87,28.77,8.0,North,9.2,-,0.02,Rain,Light Rain,350,2011-10-26 02:22:00
6:45 PM,41.0,37.4,87,28.78,10.0,NNW,11.5,18.4,0.02,Rain,Light Rain,340,2011-10-26 02:45:00
6:53 PM,41.0,36.0,82,28.78,10.0,NNW,10.4,18.4,0.03,Rain,Light Rain,340,2011-10-26 02:53:00
7:53 PM,41.0,37.0,86,28.82,10.0,North,6.9,-,0.00,Rain,Light Rain,350,2011-10-26 03:53:00
8:53 PM,42.1,36.0,79,28.84,10.0,North,13.8,21.9,0.01,,Overcast,350,2011-10-26 04:53:00
9:53 PM,43.0,35.1,74,28.87,10.0,North,13.8,27.6,N/A,,Overcast,360,2011-10-26 05:53:00
10:53 PM,42.1,35.1,76,28.91,10.0,North,17.3,25.3,N/A,,Overcast,350,2011-10-26 06:53:00
11:53 PM,42.1,34.0,73,28.95,10.0,NNE,10.4,20.7,0.00,,Overcast,20,2011-10-26 07:53:00